Location: Korczew
(51.3586°N, 19.4491°E)
Time: 08:41:47
(UTC+00:00)

Cosmos 2327 Rocket - Pass Details

Date: 19 May 2025
Orbit: 942 x 1008 km, 83.0° (Epoch: 16 June)

Event Time Altitude Azimuth Distance (km) Brightness Sun altitude
Rises 19:31:10 0° 350° (N) 3,666 8.6 -7.7°
Reaches altitude 10° 19:33:42 10° 352° (N) 2,706 7.8 -8.0°
Maximum altitude 19:39:54 80° 79° (E) 970 4.5 -8.7°
Drops below altitude 10° 19:45:59 10° 168° (SSE) 2,657 6.3 -9.3°
Enters shadow 19:46:35 - 168° (SSE) 2,887 6.4 -9.3°
